Wind_Speed
21 21 20 20 20 19 18 17 16 15 15 14 13 12 11 10 10 10 9 8 7 7 6 8 10 9 6 6 6 5 4 4 4 3 6 10 12 12 12 12 10 8 7 6 6 6 4 4 4 4 5 7 9 9 9 9 9 9 8 9 10 10 12 11 12 13 14 11 9 9 9 11 12 16 20 22 25 24 24 23 19 16 14 14 13 11 14 17
21 21 21 21 20 20 19 18 17 16 15 15 14 12 11 10 10 9 9 8 7 6 6 7 10 9 7 7 7 6 4 3 2 4 8 10 10 11 11 10 10 9 8 6 6 6 5 6 7 7 8 10 12 12 12 12 10 11 10 10 10 11 12 12 13 12 10 7 7 7 8 11 13 18 22 24 27 26 24 23 19 17 16 16 14 13 17 18
22 22 22 21 21 20 20 19 18 17 16 15 14 13 11 10 10 9 9 8 7 6 6 7 10 9 8 8 8 6 4 3 3 6 9 11 10 10 10 11 11 11 9 8 9 8 6 8 9 10 12 14 15 14 14 14 13 12 11 11 11 12 12 11 9 6 6 4 5 7 9 11 15 19 22 25 26 25 23 20 18 17 16 15 15 15 18 19
23 22 22 22 21 21 20 19 19 18 17 16 15 13 12 10 10 9 9 9 8 6 5 7 10 10 8 10 9 7 5 4 6 9 11 11 11 11 12 12 12 12 11 11 11 10 8 9 10 11 14 16 17 17 16 15 14 14 12 12 12 12 11 9 8 6 4 4 5 7 10 14 18 22 25 26 25 23 20 16 15 15 14 14 16 16 18 18
24 23 22 22 21 21 21 20 19 18 17 16 15 14 12 11 10 9 8 9 9 7 5 6 11 11 10 11 10 8 6 5 9 11 11 11 12 11 12 12 11 12 11 11 10 10 10 9 9 10 13 16 18 17 17 15 14 15 13 12 11 12 11 9 9 7 4 5 8 10 13 16 19 23 27 28 23 19 17 14 14 13 11 11 14 15 16 17
24 24 23 22 21 21 21 20 19 18 17 16 15 14 13 11 10 9 8 9 9 8 6 6 11 12 12 12 11 12 8 6 10 11 11 11 12 11 10 10 10 11 11 11 10 10 9 8 8 9 12 16 18 18 17 15 14 15 15 13 11 11 11 10 11 7 2 4 9 12 15 18 21 24 27 25 19 15 15 16 14 11 11 11 12 11 13 15
23 23 23 22 22 21 21 20 19 18 17 16 15 15 13 11 10 10 9 9 9 9 6 7 11 13 14 14 14 13 8 8 12 12 12 12 11 11 9 9 9 10 10 9 9 9 8 6 6 8 12 16 17 17 18 16 13 14 15 16 13 12 10 10 12 10 2 6 10 14 17 20 24 25 25 22 18 16 16 17 14 12 13 13 12 10 11 14
21 21 22 22 22 21 21 20 19 18 17 16 16 15 14 12 11 10 9 8 9 9 8 7 11 15 15 15 16 13 10 12 14 12 12 11 11 10 8 7 8 9 9 7 6 4 3 2 4 7 11 14 15 16 17 17 15 14 15 17 16 12 9 9 10 11 5 6 12 15 15 19 25 25 22 20 19 18 17 17 14 13 14 14 13 11 13 16
20 20 20 20 21 21 21 20 19 18 17 17 16 15 14 12 11 10 9 9 9 10 9 8 11 16 16 16 17 13 12 14 14 13 13 11 10 9 7 6 7 8 8 8 6 3 2 3 2 5 10 12 14 14 14 17 16 14 17 17 16 14 10 8 6 8 7 5 11 14 14 19 24 23 20 20 20 19 18 17 14 14 13 13 14 13 15 17
19 19 18 19 19 20 20 20 19 18 18 17 16 15 14 12 11 10 10 9 9 10 10 9 11 16 17 18 18 15 15 15 14 15 14 11 10 8 7 7 6 5 7 7 5 3 3 5 4 3 8 11 12 12 12 15 15 14 19 18 17 16 12 9 6 5 5 5 10 12 13 18 23 21 19 19 19 20 19 18 16 15 13 13 15 15 15 16
19 18 17 17 18 18 19 20 19 18 18 17 17 16 15 13 12 11 10 9 9 10 11 10 11 17 18 19 19 17 17 17 16 17 16 13 10 7 6 7 6 5 5 6 4 4 4 5 4 3 7 8 10 11 11 14 14 15 19 19 17 16 12 10 7 4 3 4 8 11 10 15 21 19 17 17 18 19 19 18 17 15 13 12 14 15 16 16
19 18 18 17 17 17 18 19 19 18 18 17 17 17 16 13 12 11 11 10 9 9 11 11 11 16 19 20 20 19 19 18 18 19 18 14 11 9 7 7 9 9 8 8 7 6 4 5 3 3 5 5 7 10 12 14 15 16 19 18 15 12 11 10 6 4 3 4 8 12 11 11 16 17 16 16 17 18 19 19 17 15 13 12 14 15 15 15
20 19 19 18 17 17 17 18 18 18 18 17 17 18 16 13 12 12 11 10 10 9 11 12 12 15 20 21 21 21 21 20 19 20 19 17 14 13 12 10 11 12 10 9 9 7 5 4 3 2 2 3 6 9 12 15 16 16 17 16 10 7 9 9 5 3 3 6 9 13 11 9 12 15 17 16 16 18 19 19 17 15 13 13 13 15 15 15
20 20 20 19 19 18 17 17 17 18 17 17 18 19 16 14 13 12 12 11 10 10 11 13 12 14 19 22 23 23 22 21 21 20 20 19 17 16 15 13 13 14 11 10 8 6 4 5 4 2 2 4 7 9 12 15 16 15 14 12 10 7 9 8 4 2 2 7 10 11 10 10 11 14 16 15 15 17 18 18 17 15 13 13 13 14 15 15
21 21 21 21 20 19 18 17 16 16 17 18 19 19 16 15 14 13 12 12 11 11 11 13 14 14 19 23 25 25 24 23 21 20 20 18 17 16 15 14 14 14 12 10 8 5 5 7 6 5 5 6 9 10 12 14 13 13 12 10 11 8 8 7 4 1 2 6 10 10 9 12 12 12 13 14 15 15 16 18 18 16 14 13 13 13 14 15
22 22 22 22 21 20 20 18 16 15 16 18 20 19 17 16 15 14 13 12 12 12 11 13 15 15 18 22 25 26 25 24 21 21 20 18 16 14 15 14 13 14 13 11 9 7 7 8 7 7 7 7 8 10 12 12 12 12 11 12 13 11 9 7 3 1 3 6 9 10 11 12 13 13 12 12 13 14 16 18 19 17 14 12 12 13 14 15
22 22 22 22 22 21 20 19 17 14 15 18 20 19 17 16 15 15 14 13 13 12 12 13 15 16 16 21 25 26 26 25 23 21 21 20 18 16 16 16 14 14 14 13 12 10 9 9 9 9 9 8 7 8 11 10 11 13 14 16 16 14 13 10 7 5 3 7 9 11 11 12 13 14 14 13 13 13 15 17 18 17 15 13 12 12 14 16
21 22 22 22 22 21 21 20 17 14 15 17 19 19 18 17 16 16 15 15 14 13 13 13 15 16 15 18 24 26 26 27 25 22 21 22 20 18 17 18 16 14 14 15 15 12 12 11 11 12 12 10 6 7 10 9 13 15 17 19 19 18 18 16 14 10 6 6 9 13 13 12 13 15 15 14 14 14 13 15 17 17 17 15 14 13 13 15
20 20 20 20 20 21 21 20 18 14 14 17 19 18 18 17 17 18 17 17 16 15 14 13 16 17 14 16 23 27 27 28 28 25 23 23 22 20 19 19 18 16 16 17 16 13 14 14 14 14 10 5 3 6 9 9 14 16 17 20 21 22 22 20 16 11 7 6 9 13 12 11 13 15 16 16 16 16 13 15 17 17 18 18 16 14 14 15
19 19 19 19 19 19 20 20 17 15 14 17 18 18 18 18 18 18 18 18 15 15 14 13 14 17 16 17 24 28 29 28 28 26 24 23 23 22 21 21 20 19 19 17 16 14 14 16 17 13 4 2 2 8 10 10 15 19 19 22 23 23 22 19 13 7 4 5 6 8 9 11 14 14 16 17 17 18 17 17 18 18 20 20 18 16 15 16
17 17 18 17 17 18 19 19 17 15 14 17 18 18 18 19 18 18 17 16 15 15 15 14 14 17 18 20 26 30 30 30 29 28 26 24 23 23 24 23 23 23 21 18 17 15 15 19 16 8 3 1 6 9 11 12 17 20 21 23 23 21 20 17 9 4 4 5 4 6 9 12 13 11 13 18 19 19 19 19 18 18 19 20 20 18 16 16
15 15 16 16 16 17 18 17 16 14 14 17 19 18 18 18 17 16 16 15 14 15 16 16 17 18 19 21 26 30 32 32 32 31 29 26 25 26 25 25 24 23 22 21 20 17 19 22 13 8 3 6 7 8 10 14 17 20 21 22 22 20 17 15 9 3 3 4 4 7 9 8 10 10 12 17 20 19 18 19 18 18 19 21 21 20 18 18
14 14 14 14 15 16 16 16 15 14 14 17 18 17 16 17 16 15 14 14 13 14 16 17 17 17 20 22 25 31 33 33 33 32 30 28 27 27 26 26 24 23 23 24 23 21 21 14 8 7 8 9 8 7 10 15 17 17 19 21 20 18 17 15 10 5 2 4 6 9 10 8 10 12 14 17 18 19 19 19 19 19 20 20 20 20 19 19
13 13 12 13 14 15 15 14 14 13 14 18 17 15 15 15 14 12 12 14 14 14 16 17 18 18 20 23 25 30 32 33 33 32 30 29 28 28 26 24 23 23 24 23 23 25 21 7 4 8 10 11 11 9 10 15 17 16 19 20 17 16 17 17 13 7 4 7 10 9 10 12 14 15 16 16 17 19 20 21 21 22 22 20 20 20 21 20
13 12 11 11 12 13 13 13 13 13 16 18 16 14 13 12 10 9 10 13 12 12 16 18 19 18 21 25 26 28 31 33 32 31 31 30 28 28 25 23 24 24 23 23 22 27 23 12 10 13 11 12 13 10 10 12 19 19 14 13 15 16 17 18 15 10 7 9 12 11 7 7 12 17 16 16 18 18 19 21 22 22 22 22 22 21 22 22
13 11 10 9 10 12 12 13 13 14 17 16 14 13 12 9 8 7 7 11 11 9 13 17 17 17 22 28 28 27 29 32 32 31 31 30 28 27 24 24 26 24 22 22 22 27 26 18 17 18 14 14 15 13 8 9 20 19 10 11 16 18 17 15 12 11 8 6 9 12 10 6 9 14 16 17 18 17 18 20 20 21 22 24 24 23 22 22
12 9 8 8 9 10 12 13 14 15 16 15 14 12 11 8 7 6 5 7 8 5 7 13 14 14 20 27 29 29 27 27 32 33 32 32 29 26 24 25 26 24 22 21 23 28 28 22 20 20 19 18 17 11 7 6 16 17 12 16 16 14 14 13 8 10 10 7 5 8 12 10 12 12 16 18 18 18 20 20 20 21 22 23 24 23 23 22
11 8 6 7 9 10 12 13 13 14 15 15 14 12 10 8 6 5 3 2 1 0 2 10 14 13 20 26 29 31 25 22 30 34 32 31 30 28 26 25 23 21 20 23 27 28 24 21 19 19 20 20 15 10 6 9 16 19 17 16 13 11 13 12 6 9 12 9 7 8 9 9 11 10 13 18 19 20 20 18 18 20 21 23 24 24 23 22
11 7 5 6 8 10 12 13 13 14 15 15 14 12 10 8 6 4 2 1 0 1 1 10 14 13 21 27 29 32 24 18 24 31 32 32 31 29 26 23 21 20 19 23 28 24 18 17 16 17 19 19 15 10 10 12 14 18 16 13 11 9 12 11 6 9 11 8 10 13 11 7 9 11 13 19 20 18 16 14 14 17 19 21 22 23 23 23
10 5 4 6 7 9 12 12 13 15 16 15 14 13 11 9 6 4 1 1 2 3 2 10 12 12 21 27 30 32 25 16 18 26 31 32 30 29 26 22 20 22 22 23 26 24 19 17 17 18 18 18 16 13 13 11 12 14 12 12 12 9 13 10 5 7 6 6 11 14 15 10 5 10 13 17 10 5 9 13 14 15 17 18 20 21 22 22
8 4 3 5 6 9 11 12 13 16 17 16 16 14 12 10 7 4 2 2 4 6 3 10 8 8 19 26 29 32 27 17 16 22 29 31 29 29 29 25 23 23 25 28 28 26 24 22 21 20 18 17 17 16 16 14 14 13 10 14 13 8 9 6 0 2 2 4 6 7 10 13 10 9 10 11 4 1 7 12 13 14 15 17 18 19 20 20
8 5 3 2 4 8 10 11 14 17 18 18 17 15 13 10 7 6 2 4 4 5 6 7 5 4 12 21 26 31 29 20 17 19 24 30 29 29 30 28 27 23 23 29 30 27 27 25 22 20 18 18 18 19 19 17 17 14 11 14 9 2 4 2 1 1 4 7 7 6 3 11 17 16 10 9 7 4 8 10 11 11 12 14 16 17 18 19
9 7 5 3 1 6 8 11 15 18 19 19 17 16 14 8 5 8 2 4 3 4 5 2 6 6 9 16 23 29 29 23 18 17 20 27 29 29 29 27 28 25 20 23 26 26 25 22 23 22 20 20 20 21 21 17 13 12 11 13 9 2 2 2 2 1 4 7 10 11 5 7 16 16 10 9 8 7 8 9 9 10 10 12 13 14 16 17
9 7 6 4 1 4 7 12 16 19 20 19 18 17 15 7 2 5 3 1 2 3 2 2 9 12 10 13 20 26 30 26 20 17 20 27 30 31 31 29 29 27 24 21 20 20 17 15 19 20 18 19 20 20 19 16 15 13 13 12 13 11 6 3 3 3 2 1 1 6 6 6 8 3 2 5 9 12 11 10 10 10 9 11 12 14 16 16
9 6 4 4 4 5 9 13 17 20 21 20 18 18 16 9 4 3 3 2 2 4 4 1 8 13 11 11 14 22 29 27 23 20 21 26 31 32 32 31 30 28 27 23 18 16 15 17 17 16 15 16 16 15 13 14 15 15 15 14 16 18 14 7 3 4 3 1 2 8 8 10 10 6 2 2 6 12 14 13 13 12 12 13 15 16 16 16
8 5 3 4 6 8 11 14 17 20 21 20 19 19 18 11 4 2 2 3 7 9 8 7 4 8 12 13 13 17 24 27 26 23 22 24 27 29 29 30 30 29 28 26 20 14 13 19 19 14 15 17 16 15 13 11 11 9 13 16 15 16 17 11 5 4 3 2 3 7 11 16 15 13 11 6 3 8 14 16 16 15 15 16 16 16 15 15
7 4 2 5 8 10 12 14 16 19 20 20 19 18 16 12 6 3 1 4 9 11 9 7 7 6 6 10 13 15 18 22 25 26 25 23 23 26 28 28 28 30 29 27 25 20 17 21 19 13 13 15 16 17 17 16 14 12 12 14 12 13 16 13 5 2 0 1 3 7 14 18 13 9 8 6 5 8 14 17 16 17 18 17 16 15 14 13
7 5 2 5 8 9 11 13 15 17 17 18 19 17 15 14 12 7 7 11 11 10 8 5 6 7 6 6 9 12 14 17 22 25 26 24 21 24 28 28 27 29 29 27 27 27 24 22 20 15 13 13 14 16 17 17 18 17 15 12 10 9 10 12 8 1 1 1 3 6 11 15 15 13 9 6 7 8 13 18 18 19 20 18 16 15 13 14
7 5 4 6 7 8 9 11 12 13 15 16 17 16 14 14 13 10 11 13 12 9 5 3 4 5 6 7 7 9 13 16 19 22 24 24 23 24 26 27 27 27 28 29 28 29 26 21 19 15 9 9 12 14 15 15 16 19 18 15 13 11 9 11 12 6 2 2 1 3 5 8 13 15 12 9 10 9 13 18 18 18 18 17 17 16 14 14
6 4 5 8 8 7 7 8 9 9 11 12 13 13 12 13 12 10 11 12 11 8 4 2 4 4 5 8 7 5 8 12 17 20 21 21 22 24 24 25 27 27 26 28 29 30 28 24 21 16 8 7 10 10 11 12 12 17 20 20 19 15 10 8 10 11 5 2 2 0 3 9 13 14 12 9 9 10 14 18 15 14 15 16 17 16 14 14
5 2 3 7 9 8 7 7 7 6 6 6 8 9 9 11 10 7 9 12 10 6 3 1 3 3 4 6 7 5 2 6 12 18 21 21 21 22 22 22 25 26 25 28 31 31 29 27 27 26 22 18 13 10 10 12 13 14 17 23 22 20 17 8 4 10 9 5 3 1 4 13 15 12 11 9 9 10 14 18 15 14 15 16 17 15 14 14
3 2 1 3 5 7 7 7 7 7 6 6 6 6 7 8 6 5 7 11 10 7 5 1 3 2 3 6 6 4 1 1 6 13 16 17 19 20 19 19 20 22 24 26 27 28 29 28 29 31 30 23 16 14 15 18 18 16 13 17 18 20 24 16 6 8 9 6 5 1 3 12 14 9 11 11 11 12 14 17 15 16 16 14 15 15 15 15
4 2 1 1 1 2 5 6 6 7 7 6 6 5 5 5 3 3 4 8 9 7 5 2 0 2 4 4 3 3 2 2 4 7 7 8 10 11 13 18 19 20 23 26 26 26 27 28 28 28 29 26 21 19 19 18 19 17 13 13 15 18 23 23 18 13 8 6 5 0 2 13 12 8 12 11 12 13 16 18 16 17 17 13 14 15 15 17
4 3 1 1 2 3 4 5 6 6 6 6 5 4 4 3 2 2 3 6 7 6 5 4 2 2 4 1 1 1 2 1 2 3 3 4 5 5 5 14 20 21 22 25 26 26 26 28 26 18 15 17 16 14 13 13 12 13 13 13 16 19 19 21 21 17 10 8 6 3 5 13 11 8 10 10 13 15 18 18 16 17 17 14 14 15 16 18
7 6 4 3 3 4 5 5 5 5 6 6 6 5 4 3 2 1 4 6 4 3 5 4 3 6 6 3 3 2 1 1 3 3 3 2 1 0 0 5 14 19 20 21 23 24 24 28 28 20 10 8 8 6 6 8 9 11 14 14 16 21 21 19 17 13 10 7 6 6 9 14 10 6 4 5 12 14 16 17 17 18 18 16 15 15 17 19
8 8 7 6 5 6 7 7 6 6 6 7 6 5 4 4 3 3 6 6 4 2 4 5 6 9 8 5 4 3 4 4 4 3 2 1 3 5 2 1 6 13 17 21 24 24 24 26 28 27 23 19 15 9 5 3 5 8 12 15 17 21 21 20 18 15 12 10 9 11 15 18 14 8 4 4 9 12 15 19 19 19 19 19 17 16 17 18
7 8 9 8 7 6 8 8 6 6 7 6 6 4 3 3 3 5 6 7 4 1 2 3 7 9 8 6 5 4 5 5 3 2 1 1 3 6 4 1 3 8 13 18 22 23 25 27 26 27 28 25 21 18 13 9 7 10 12 14 18 19 19 21 23 20 15 11 12 13 15 18 17 13 11 11 10 12 16 20 20 19 21 21 19 17 17 18
8 8 8 9 8 6 7 7 6 6 6 5 4 4 3 2 1 4 6 6 5 4 5 3 4 7 7 6 5 6 6 5 4 4 4 4 4 5 5 3 4 6 9 12 17 22 25 27 26 26 27 28 26 24 23 21 20 20 14 11 16 17 19 22 21 17 11 7 9 14 16 20 21 18 16 16 14 16 20 22 21 21 22 23 21 18 17 18
9 8 8 8 10 10 9 8 7 6 6 6 5 4 4 3 1 1 3 3 4 7 9 9 6 4 4 5 5 7 8 6 6 8 7 5 4 4 5 3 1 4 9 11 15 22 24 23 25 25 25 27 27 26 25 23 22 17 11 12 15 16 19 19 17 18 18 13 12 15 17 20 23 21 18 17 16 21 23 24 23 21 23 24 22 19 18 19
10 10 9 9 10 11 12 11 10 9 8 8 8 6 5 6 5 1 1 1 2 7 9 10 9 7 5 5 5 7 9 8 8 9 8 7 6 6 5 3 4 3 2 5 11 19 20 18 19 20 20 23 24 24 24 19 14 11 8 12 15 15 17 17 16 24 29 20 14 17 18 20 22 21 19 15 16 23 26 26 24 22 23 25 24 21 19 19
11 11 11 10 10 11 12 13 13 13 13 12 12 10 7 7 7 3 2 2 1 4 7 8 9 9 8 7 6 6 8 8 8 8 9 7 6 6 5 5 6 6 6 5 5 14 18 15 14 15 17 19 20 22 20 14 11 9 8 10 14 15 17 17 16 23 29 23 20 23 21 19 21 22 21 17 17 24 27 27 26 24 25 25 25 23 21 20
12 12 11 11 11 11 11 13 14 15 16 15 14 13 12 10 9 6 5 4 2 3 4 5 6 7 6 6 7 7 8 8 8 8 8 8 6 5 5 4 4 5 5 6 5 9 14 15 13 13 13 14 16 16 17 15 9 7 8 10 12 15 18 17 16 21 25 23 25 26 20 15 15 19 21 20 19 24 28 29 28 26 26 26 25 23 21 20
Wind_Direction
297 297 298 298 298 298 298 298 296 296 298 300 301 300 298 293 284 279 281 288 297 293 270 240 218 210 205 197 201 212 224 244 252 225 179 173 165 160 167 171 168 158 141 118 105 101 95 80 66 56 47 32 27 30 17 4 357 360 359 340 335 321 308 304 296 289 286 282 270 262 240 220 203 184 177 173 173 177 185 187 189 184 173 173 173 182 188 176
295 295 296 296 296 297 297 297 296 295 294 296 299 299 297 294 287 277 274 278 286 290 272 238 215 207 201 194 193 201 216 232 222 181 161 156 151 153 162 162 150 137 128 124 124 124 120 100 83 67 57 43 35 34 24 12 5 9 4 349 343 332 328 320 301 283 273 267 245 230 204 199 190 175 170 169 172 179 185 186 186 179 175 179 176 179 182 176
293 293 293 293 294 294 295 295 295 295 292 292 295 297 297 292 289 279 270 269 273 282 269 236 213 203 198 191 189 195 196 182 162 152 151 146 141 145 153 153 143 138 140 145 143 136 128 109 92 70 57 47 38 33 24 16 13 12 359 351 353 347 350 342 322 292 263 242 217 199 181 182 174 167 165 166 173 181 186 187 183 174 177 183 178 177 179 177
291 291 291 290 291 291 292 292 292 292 291 290 290 293 296 292 290 282 271 264 264 270 263 234 209 199 192 188 186 184 171 157 146 140 147 147 141 141 148 153 152 152 156 152 140 130 124 107 90 71 53 43 37 31 23 19 16 14 5 359 358 354 1 356 344 326 283 198 171 170 172 171 164 160 159 166 178 183 184 186 182 174 179 184 177 176 178 177
289 289 288 288 288 288 288 288 289 289 288 288 287 288 292 292 288 283 274 261 259 258 255 233 206 195 188 186 182 169 149 145 148 140 144 145 143 147 152 156 156 155 151 142 131 124 122 104 82 65 50 42 38 30 23 21 19 19 12 3 356 355 2 354 345 334 295 191 163 164 172 164 157 157 159 170 181 179 175 183 185 177 178 177 171 178 179 175
288 287 286 286 286 285 285 284 285 286 286 285 283 283 285 289 285 282 276 260 254 249 247 228 203 193 186 185 178 165 150 149 155 147 146 148 150 153 154 156 156 155 146 138 134 121 110 92 71 60 50 44 38 29 23 21 19 22 16 5 353 354 3 354 352 358 332 176 161 161 164 156 154 160 166 172 177 176 179 188 190 176 169 164 162 178 178 171
290 287 284 283 283 283 282 281 281 281 282 282 280 279 278 283 282 278 275 261 251 243 240 223 202 192 186 186 179 169 162 158 158 154 152 153 156 156 156 155 153 158 153 136 129 119 102 79 63 60 51 44 40 32 27 22 18 18 15 8 358 355 1 360 359 4 38 167 162 159 161 159 159 164 169 170 173 182 190 195 194 175 168 161 156 168 171 168
293 290 286 282 279 279 279 279 278 277 278 278 277 275 273 276 278 274 271 261 249 240 233 220 202 192 187 187 183 175 169 163 161 159 157 158 158 153 147 145 147 162 168 151 141 138 116 56 38 56 51 44 43 39 30 21 14 11 7 3 3 5 359 0 7 8 17 158 159 158 161 164 164 165 167 168 173 184 194 201 197 179 172 160 153 157 164 169
294 293 289 284 279 276 276 276 275 274 274 274 274 272 269 269 272 271 267 261 249 237 231 220 202 194 189 186 184 176 169 167 165 162 161 162 153 142 126 125 139 154 175 189 197 214 237 267 321 42 48 45 43 39 26 13 8 5 359 352 359 13 4 351 8 19 23 108 142 154 164 165 164 164 166 166 171 182 194 205 199 183 174 157 149 151 160 171
292 292 291 287 282 276 273 273 273 272 270 270 270 269 266 263 266 267 262 259 249 237 228 220 203 194 190 186 182 177 173 170 169 166 164 165 153 138 124 126 133 145 178 197 210 221 225 247 274 15 41 42 38 31 16 5 2 355 354 350 353 6 5 352 358 23 37 95 122 139 160 167 168 166 167 169 172 180 193 203 199 185 174 156 148 147 154 167
285 288 289 288 285 278 272 270 270 270 267 267 267 266 263 259 260 261 259 255 248 238 226 221 207 194 192 187 180 178 176 173 174 171 168 168 158 138 116 114 116 119 156 169 176 195 215 246 270 12 35 39 34 20 1 354 352 345 349 351 350 354 360 4 11 28 55 106 121 128 142 166 173 172 173 176 180 185 195 204 198 187 178 161 151 149 152 160
281 281 283 284 284 281 275 269 267 267 265 263 263 263 260 256 256 257 255 251 246 238 225 221 211 196 194 186 179 181 179 176 177 174 171 168 159 151 135 117 112 106 116 140 162 186 206 236 266 20 19 22 27 7 348 344 346 345 347 348 348 350 359 15 33 46 67 101 130 141 144 162 173 180 184 187 192 193 199 206 201 191 183 168 158 154 152 158
280 277 277 277 279 280 277 271 265 264 263 261 259 259 258 254 252 252 251 249 244 237 225 219 213 201 194 186 182 184 182 180 180 178 176 171 166 164 154 141 135 132 136 150 165 177 189 228 274 3 343 348 12 356 340 340 341 341 344 350 358 3 10 27 47 43 90 120 141 158 165 173 174 179 187 190 194 197 200 204 202 195 186 177 168 159 156 164
279 277 275 274 273 274 275 273 267 262 260 259 256 255 255 252 248 248 247 245 241 235 226 218 213 205 195 188 187 187 184 184 184 182 181 180 177 172 162 157 156 157 163 173 182 190 211 247 272 311 304 321 347 344 333 330 332 336 341 356 12 13 15 29 47 25 128 146 158 174 180 185 181 173 180 188 188 193 198 197 197 196 190 185 176 165 162 169
276 275 274 272 270 270 270 271 269 262 258 256 254 252 252 249 246 245 244 241 239 234 227 217 213 209 198 192 192 190 187 187 185 184 186 185 185 182 175 169 165 169 177 191 204 213 236 255 273 295 299 311 328 332 330 327 332 339 339 350 5 4 5 20 47 44 223 175 170 183 188 186 185 175 178 188 188 192 195 192 195 196 195 191 182 172 167 168
274 273 272 270 268 267 266 266 267 263 257 253 253 250 248 246 243 243 242 239 237 234 229 218 213 210 201 195 195 193 191 189 185 187 188 184 181 185 186 179 173 178 186 199 212 220 238 254 270 281 288 304 317 323 326 334 343 347 341 341 351 351 348 357 9 358 245 218 197 195 197 191 188 186 191 198 196 196 194 193 197 200 202 199 187 177 172 172
274 272 270 269 266 264 262 261 261 262 256 250 250 248 245 243 241 241 240 238 236 234 230 222 214 211 205 199 196 194 193 191 189 190 189 185 179 181 187 186 182 184 190 202 214 221 236 249 261 268 276 285 293 305 312 334 350 344 336 333 335 334 332 334 326 318 269 240 227 212 205 201 197 196 203 208 208 204 198 196 200 204 209 209 199 186 180 180
276 273 270 267 264 261 259 257 255 257 255 249 247 245 242 240 240 240 240 237 234 231 229 225 215 210 208 203 197 195 194 194 194 193 192 189 183 181 186 188 189 191 192 204 215 221 232 242 253 258 262 267 265 274 288 328 347 335 329 326 324 322 319 320 321 317 294 265 243 226 212 202 205 206 206 209 213 214 204 201 205 210 214 216 212 201 192 190
278 274 270 266 263 259 256 253 250 250 252 248 243 242 240 237 238 239 240 238 235 231 228 225 215 208 206 200 195 195 194 195 197 197 197 196 190 185 186 188 193 197 198 206 216 218 228 240 247 249 250 246 250 276 285 322 338 330 326 323 322 322 321 323 326 323 297 278 257 236 215 198 206 212 211 210 214 219 213 205 208 215 218 218 218 213 206 200
281 276 270 265 261 257 253 248 244 243 246 245 240 238 237 235 236 238 241 241 239 237 233 227 219 210 203 192 191 194 193 194 196 196 198 200 195 190 190 192 193 200 203 207 216 221 228 240 243 238 214 147 279 300 296 310 323 321 320 319 319 320 328 336 336 336 311 279 265 245 217 200 204 209 213 213 214 219 217 210 208 213 218 219 219 218 213 206
290 280 270 262 257 254 249 243 237 236 238 240 238 234 233 234 235 238 243 245 241 239 235 232 225 213 204 195 192 193 192 192 193 193 195 198 197 194 193 195 195 200 203 203 216 222 227 237 233 202 136 234 280 293 295 306 317 316 314 314 316 319 331 341 339 345 325 292 268 244 223 203 202 206 211 215 217 217 216 214 211 212 216 219 221 219 216 209
299 287 271 258 253 249 245 236 230 230 230 235 236 232 231 233 236 240 246 248 243 240 236 229 224 213 204 201 196 193 192 192 193 194 195 197 199 199 197 197 199 201 201 205 215 220 230 237 218 167 197 271 279 286 292 305 310 310 310 309 314 319 324 330 327 325 304 284 263 243 236 214 206 214 213 216 221 220 220 220 219 218 218 219 219 219 217 211
302 293 274 255 247 245 240 229 223 224 224 231 235 232 232 233 237 243 250 255 250 243 237 229 224 214 204 204 199 197 195 193 195 196 197 199 199 200 200 199 202 202 203 209 212 219 230 229 184 182 237 264 276 281 286 297 300 304 309 306 312 317 311 312 312 296 253 256 258 247 246 230 212 217 217 215 220 223 223 223 223 225 224 222 221 220 220 214
302 294 277 255 244 242 236 223 218 218 219 228 234 232 232 233 238 245 255 263 257 241 236 230 224 212 200 202 203 201 199 196 196 195 195 197 196 198 201 200 204 207 209 212 213 224 230 208 180 227 241 255 264 264 271 291 298 305 308 301 308 319 309 305 301 277 221 228 248 253 259 246 222 217 215 210 214 218 221 223 223 223 223 223 225 225 222 218
302 293 280 259 246 243 231 216 211 211 215 225 228 227 231 234 239 250 262 272 267 240 230 228 223 207 193 198 203 203 202 200 198 195 194 196 195 199 200 199 208 212 212 215 218 229 231 217 230 243 240 246 257 261 260 282 294 302 313 304 311 324 311 298 287 261 223 226 241 244 259 262 231 220 214 211 213 212 214 222 222 219 219 218 218 220 220 220
304 295 283 264 250 244 227 210 205 206 212 218 219 220 226 228 234 250 266 278 277 246 226 224 222 209 194 199 202 199 204 206 200 196 196 199 200 203 203 202 210 213 213 218 225 234 236 229 233 242 244 247 259 262 244 268 284 292 330 339 317 314 313 306 282 252 232 232 244 237 233 269 265 232 214 212 215 212 213 218 219 216 216 215 214 214 215 216
307 298 284 261 247 238 220 207 203 205 207 209 210 212 215 219 227 246 269 287 283 250 223 214 210 204 197 202 203 197 202 206 200 198 199 200 202 205 209 210 212 212 210 216 229 235 236 234 234 238 243 251 256 239 194 246 274 278 322 337 318 313 327 332 298 244 236 240 253 244 232 254 285 251 216 214 216 214 216 217 214 211 210 211 211 211 211 212
312 306 286 256 241 228 215 206 202 202 202 201 202 202 206 210 216 229 246 318 306 123 207 198 193 192 192 199 204 200 202 202 198 201 200 199 203 205 210 213 211 212 208 212 225 230 233 237 237 238 245 249 238 210 214 271 276 281 306 317 304 313 334 339 320 237 233 243 256 252 230 238 279 264 218 217 220 215 217 215 211 208 205 206 207 207 209 209
319 314 282 252 235 221 212 204 197 197 196 194 192 194 199 201 202 204 190 71 26 18 155 181 183 190 189 193 200 201 202 202 202 202 199 200 205 206 211 211 208 215 216 220 230 233 234 240 243 245 244 239 231 235 270 279 284 292 302 299 284 303 329 337 322 246 235 248 255 247 232 221 271 275 227 217 225 226 221 211 205 206 204 204 205 204 205 207
324 312 262 242 225 214 210 201 194 191 188 187 185 187 193 193 184 166 145 91 70 48 142 172 177 193 194 192 195 197 197 200 206 204 201 203 205 208 214 217 218 226 228 233 240 241 241 245 249 249 243 241 248 261 266 268 289 298 289 267 261 291 319 323 295 248 237 265 271 260 246 230 264 282 235 217 233 256 220 206 198 199 200 201 203 204 204 206
326 308 261 240 217 209 207 198 190 184 181 181 181 186 190 185 179 160 98 98 82 56 125 174 181 202 201 196 193 193 194 194 200 203 204 203 204 207 212 218 224 230 236 241 244 246 247 249 250 249 246 250 258 258 258 266 285 296 275 249 249 283 316 324 252 213 213 274 312 305 254 226 228 261 246 229 259 358 203 206 200 194 194 194 195 199 202 204
337 338 332 287 212 208 206 194 183 178 176 177 179 187 186 177 191 196 114 76 82 68 106 163 200 217 205 203 198 193 190 188 191 200 207 205 204 208 211 215 216 219 232 238 240 247 251 252 251 250 247 248 254 259 264 270 276 283 260 232 233 316 332 308 96 178 228 248 282 305 246 212 236 262 273 255 247 215 201 204 204 201 194 191 189 190 196 199
355 4 11 12 206 211 204 185 179 176 174 176 180 184 178 166 204 214 202 41 77 97 88 149 218 213 206 205 204 196 189 188 191 195 205 208 209 212 214 220 219 216 224 231 238 249 253 252 247 245 244 238 243 254 258 261 268 274 256 228 214 119 67 267 268 291 271 262 267 270 249 229 257 273 272 240 210 186 199 198 195 199 195 193 189 187 191 194
6 14 19 35 105 200 189 176 176 176 174 177 179 176 174 173 193 202 200 49 92 106 40 284 211 204 211 208 207 201 192 191 196 197 202 206 210 214 215 220 222 221 226 232 241 245 249 256 240 237 243 236 235 242 246 254 262 273 278 254 228 216 208 228 219 204 243 352 205 208 204 237 255 252 139 168 166 173 187 191 193 192 188 192 192 190 191 190
7 11 22 65 120 167 174 175 176 177 177 178 176 176 181 180 149 137 132 103 43 56 65 97 197 199 205 205 208 206 199 198 198 200 205 208 212 217 218 219 219 218 222 227 236 238 247 260 242 233 247 241 233 236 240 249 256 264 266 247 233 234 235 243 256 229 224 19 130 182 216 259 258 248 226 143 168 180 178 184 195 191 185 189 191 190 187 185
3 6 32 99 135 157 168 176 178 181 183 181 181 187 189 182 159 138 110 37 1 14 44 63 126 184 194 195 199 203 204 205 202 202 208 213 218 220 221 223 221 219 219 221 227 233 246 255 248 246 253 241 234 239 239 240 245 249 241 234 239 246 242 242 274 278 243 278 251 217 250 271 275 277 269 250 216 189 178 183 191 190 191 191 189 187 184 183
15 18 60 128 150 161 168 177 181 185 189 190 194 200 198 198 210 216 248 324 336 345 358 31 71 101 153 187 199 199 200 205 206 208 210 213 221 222 221 224 225 225 226 227 231 237 249 257 255 253 253 243 239 245 244 244 249 247 239 241 245 242 240 240 260 327 52 266 265 241 256 269 273 276 267 238 213 196 187 187 187 190 195 193 189 188 186 184
30 38 89 138 152 160 167 177 184 189 194 199 206 213 212 215 225 239 277 298 310 321 332 4 58 76 97 149 184 194 197 202 205 211 216 219 224 226 222 222 225 227 229 233 237 241 248 259 262 259 259 253 244 242 242 244 252 253 251 249 238 226 227 225 226 259 109 224 283 267 261 264 258 253 258 239 221 210 195 190 189 194 199 197 192 191 189 188
42 54 92 120 136 148 161 174 184 192 199 205 213 220 224 230 238 256 278 288 293 296 306 355 32 60 94 119 146 185 203 208 208 211 219 224 227 231 227 224 225 226 228 230 234 239 240 251 266 267 259 247 236 233 234 237 244 247 244 236 231 233 227 214 214 215 192 192 264 302 276 268 267 269 271 252 237 232 206 195 193 194 196 192 188 187 187 188
47 64 103 114 120 130 151 168 177 191 202 211 222 230 240 249 247 252 268 272 274 275 274 327 8 40 92 114 122 159 203 219 221 217 220 224 228 233 231 227 226 225 225 226 230 236 234 237 251 254 243 243 236 222 225 236 248 248 237 221 215 219 223 221 220 223 236 219 178 155 282 285 294 291 277 247 233 233 212 202 196 187 182 181 182 184 183 184
42 52 124 133 134 135 147 159 165 179 192 208 226 233 244 251 241 231 246 254 254 250 246 340 17 33 77 102 106 112 178 230 227 222 224 226 231 237 233 227 226 223 220 221 225 230 230 232 244 253 259 259 242 223 237 256 273 278 251 227 215 212 217 228 225 224 236 242 214 162 278 293 303 290 260 226 214 227 211 204 198 180 175 178 179 179 178 177
1 355 128 165 159 153 158 162 166 174 180 199 215 219 228 239 240 225 229 240 242 236 234 295 24 43 88 94 94 86 40 257 214 215 224 231 238 245 242 232 228 223 218 217 220 224 227 232 241 251 261 260 246 247 264 270 278 289 267 234 224 220 222 226 232 228 224 228 256 269 271 299 303 266 231 210 208 220 205 200 199 183 177 178 178 178 175 171
338 344 53 139 185 187 184 182 185 187 193 206 202 199 219 225 225 217 211 223 228 229 231 224 109 103 113 96 59 34 345 262 207 203 219 239 256 267 257 241 233 228 223 221 221 220 221 227 234 246 258 262 260 263 271 275 275 272 255 229 221 224 229 232 236 243 237 229 258 36 276 301 297 229 208 203 203 208 197 195 198 189 184 183 184 184 176 172
315 321 321 282 263 258 229 208 206 201 201 201 173 173 213 215 218 224 181 190 205 219 230 228 208 172 156 152 332 25 343 272 188 192 224 263 286 308 271 236 230 231 230 227 226 222 218 222 226 234 260 271 271 269 265 262 258 251 244 228 215 221 237 240 237 245 257 245 241 206 254 294 288 220 214 212 201 202 198 194 194 191 190 189 190 189 180 177
282 286 289 282 275 276 260 237 228 217 205 195 175 184 209 201 224 229 146 150 162 198 232 242 229 200 191 210 220 198 283 247 162 188 245 276 264 215 252 218 218 226 231 232 233 229 224 226 226 220 221 243 252 258 252 237 227 230 238 230 213 217 233 240 233 236 246 232 218 223 260 290 286 233 225 206 198 203 200 193 190 190 192 194 197 196 188 185
283 273 272 274 275 272 264 255 242 225 210 195 185 196 202 183 194 176 131 117 106 147 223 236 213 201 201 208 211 221 257 237 186 190 248 304 129 146 141 153 195 214 226 232 237 236 231 231 231 228 227 232 236 243 256 231 209 229 242 235 222 218 227 235 231 233 243 248 252 259 274 289 283 257 247 216 202 203 197 191 190 192 194 196 201 203 196 190
302 278 269 267 266 260 257 259 256 233 214 197 185 193 187 150 172 175 132 80 50 129 198 228 210 208 212 208 213 248 253 226 184 158 155 124 134 145 154 195 214 217 226 229 230 232 231 232 235 238 241 246 251 255 256 251 260 284 281 252 232 223 220 222 222 227 239 250 260 272 281 286 284 270 255 243 223 208 202 198 197 198 198 197 201 206 200 193
315 297 280 266 257 249 246 253 255 234 219 209 190 189 189 157 141 182 144 83 55 117 121 117 181 205 216 215 224 241 235 212 185 165 143 134 137 154 180 231 267 244 236 231 222 221 226 231 236 241 246 252 258 261 260 260 270 283 283 250 232 223 212 211 212 217 230 251 276 290 291 283 279 274 267 261 241 218 211 210 208 204 201 200 203 206 201 195
318 307 296 276 260 254 249 251 250 236 234 238 225 209 202 197 216 217 172 104 86 117 118 112 126 163 203 217 227 224 217 201 174 160 150 143 127 135 176 206 300 264 249 240 219 213 218 228 233 239 249 256 260 264 264 264 268 268 248 219 217 207 201 205 208 215 229 251 281 291 289 279 273 269 271 274 248 219 211 211 210 206 202 203 205 205 201 193
317 308 299 286 271 261 254 251 249 242 243 250 244 233 220 218 218 194 201 239 105 118 123 122 124 131 157 193 223 222 211 199 175 158 151 145 125 108 117 109 65 46 246 222 209 208 209 218 225 230 243 255 260 264 263 256 247 236 206 200 207 202 206 216 220 221 226 237 268 280 276 273 270 264 265 269 241 219 212 209 208 204 201 203 207 206 201 192
313 309 301 289 279 270 260 252 248 246 246 249 248 242 234 233 232 202 160 188 149 132 130 126 130 138 150 178 210 211 201 201 194 175 163 155 141 119 105 85 63 70 97 112 178 208 210 213 217 219 235 252 262 262 247 218 198 202 194 198 214 219 220 224 225 221 220 229 260 272 270 270 269 261 259 258 235 220 215 210 208 204 200 203 208 208 203 194
310 308 302 289 275 271 267 258 251 248 246 245 245 243 239 239 243 232 190 171 153 159 156 140 144 155 163 185 197 192 192 201 203 193 182 178 180 168 143 117 54 54 88 100 126 188 203 208 211 217 230 247 255 239 208 182 175 187 175 178 200 211 216 227 233 221 216 230 254 263 266 269 262 250 251 255 240 224 217 211 208 204 202 205 209 208 204 198
Height
3132 3132 3131 3131 3131 3130 3130 3130 3130 3130 3130 3130 3130 3130 3130 3129 3129 3129 3129 3129 3129 3128 3128 3129 3130 3131 3131 3132 3132 3131 3131 3131 3131 3131 3132 3133 3133 3134 3135 3135 3136 3137 3138 3139 3140 3140 3141 3141 3141 3141 3140 3139 3138 3136 3136 3135 3134 3133 3133 3133 3133 3132 3131 3130 3128 3127 3126 3126 3126 3126 3127 3127 3128 3129 3131 3133 3136 3139 3141 3143 3145 3147 3149 3150 3151 3152 3153 3153
3130 3130 3129 3129 3129 3128 3128 3128 3128 3128 3128 3128 3129 3129 3129 3128 3128 3128 3128 3128 3128 3128 3128 3128 3129 3130 3131 3131 3131 3131 3131 3131 3131 3131 3132 3133 3134 3134 3135 3136 3136 3137 3138 3139 3140 3140 3141 3141 3141 3141 3140 3139 3138 3136 3136 3136 3134 3133 3133 3132 3132 3132 3130 3129 3127 3126 3125 3125 3125 3125 3125 3127 3128 3129 3131 3133 3136 3138 3141 3143 3145 3147 3148 3149 3150 3152 3153 3154
3128 3128 3127 3127 3127 3127 3126 3126 3126 3126 3127 3127 3127 3127 3127 3127 3127 3127 3127 3127 3127 3127 3127 3127 3128 3129 3130 3130 3130 3130 3131 3131 3131 3132 3132 3133 3134 3135 3136 3136 3137 3138 3138 3139 3140 3140 3141 3141 3141 3141 3140 3139 3138 3137 3136 3136 3134 3134 3133 3132 3132 3132 3130 3129 3127 3126 3125 3124 3124 3124 3125 3127 3129 3130 3132 3135 3137 3139 3142 3143 3145 3146 3148 3149 3150 3151 3153 3154
3126 3126 3126 3125 3125 3125 3125 3124 3124 3124 3125 3125 3125 3125 3126 3126 3126 3126 3125 3126 3126 3126 3126 3126 3127 3128 3129 3130 3130 3130 3131 3131 3131 3132 3133 3134 3134 3135 3136 3137 3137 3137 3138 3139 3139 3140 3141 3141 3141 3140 3140 3139 3138 3137 3137 3136 3135 3134 3133 3132 3132 3131 3130 3129 3127 3126 3125 3124 3124 3125 3126 3127 3129 3131 3133 3136 3138 3140 3142 3144 3145 3147 3148 3150 3151 3152 3153 3155
3124 3124 3124 3123 3123 3123 3123 3123 3123 3123 3123 3123 3123 3124 3124 3124 3124 3124 3124 3124 3125 3125 3125 3126 3126 3128 3129 3129 3130 3130 3131 3131 3132 3132 3133 3134 3135 3135 3136 3137 3137 3138 3138 3139 3139 3140 3141 3141 3141 3140 3140 3139 3138 3138 3137 3136 3136 3135 3134 3133 3132 3131 3131 3129 3128 3127 3126 3125 3124 3126 3127 3128 3130 3132 3135 3137 3139 3141 3143 3145 3146 3148 3150 3151 3152 3152 3154 3155
3122 3121 3121 3121 3121 3121 3120 3121 3121 3121 3121 3121 3121 3122 3122 3123 3123 3123 3123 3123 3123 3124 3124 3125 3126 3127 3128 3129 3129 3130 3130 3131 3132 3133 3133 3134 3135 3136 3136 3137 3137 3138 3139 3139 3140 3140 3141 3141 3141 3141 3140 3139 3138 3138 3137 3137 3136 3136 3135 3133 3132 3131 3131 3130 3129 3127 3126 3125 3125 3126 3128 3129 3131 3134 3136 3138 3141 3143 3145 3145 3146 3149 3151 3152 3153 3153 3154 3156
3119 3119 3119 3118 3118 3118 3118 3118 3119 3119 3119 3119 3119 3120 3121 3121 3122 3122 3122 3122 3122 3123 3123 3124 3125 3126 3127 3128 3129 3129 3130 3130 3131 3133 3133 3134 3135 3136 3137 3137 3138 3139 3139 3139 3140 3141 3141 3142 3141 3141 3140 3139 3139 3138 3138 3137 3137 3136 3135 3134 3133 3132 3132 3131 3129 3127 3126 3126 3127 3127 3128 3130 3132 3134 3137 3139 3142 3144 3145 3146 3147 3149 3151 3152 3154 3154 3155 3156
3117 3116 3116 3116 3116 3116 3116 3116 3117 3117 3117 3117 3118 3118 3119 3120 3120 3120 3120 3121 3121 3122 3122 3123 3124 3125 3126 3127 3128 3129 3130 3130 3131 3132 3133 3134 3135 3136 3137 3138 3138 3139 3139 3140 3140 3141 3141 3141 3141 3141 3140 3139 3139 3138 3138 3138 3137 3137 3135 3134 3133 3132 3132 3132 3131 3129 3128 3127 3128 3128 3129 3131 3133 3136 3138 3140 3143 3145 3146 3146 3147 3149 3151 3152 3154 3155 3156 3157
3115 3114 3114 3113 3113 3113 3113 3114 3114 3115 3115 3115 3116 3116 3117 3118 3118 3119 3119 3119 3120 3120 3121 3122 3123 3124 3125 3127 3128 3129 3130 3130 3131 3132 3133 3135 3136 3136 3137 3138 3138 3139 3140 3140 3140 3141 3141 3141 3141 3141 3140 3139 3138 3138 3138 3138 3138 3137 3136 3134 3134 3133 3132 3132 3132 3131 3130 3129 3129 3130 3131 3133 3135 3137 3140 3141 3143 3144 3146 3146 3147 3149 3151 3153 3154 3156 3157 3159
3113 3112 3111 3111 3111 3111 3111 3111 3112 3112 3113 3113 3114 3114 3115 3116 3117 3117 3117 3118 3119 3119 3120 3121 3122 3123 3125 3126 3127 3128 3129 3130 3131 3132 3133 3134 3136 3137 3137 3138 3139 3139 3139 3140 3141 3141 3141 3141 3141 3141 3140 3139 3138 3138 3138 3138 3138 3137 3137 3135 3133 3133 3133 3133 3133 3133 3133 3132 3132 3132 3133 3135 3137 3139 3141 3142 3143 3144 3145 3146 3147 3149 3151 3153 3155 3156 3158 3160
3111 3110 3110 3109 3109 3108 3109 3109 3109 3110 3110 3111 3111 3112 3113 3114 3115 3115 3116 3116 3117 3118 3119 3120 3121 3122 3123 3125 3126 3128 3129 3130 3131 3132 3133 3134 3136 3137 3138 3138 3139 3139 3139 3140 3141 3141 3140 3140 3141 3140 3140 3139 3139 3139 3139 3139 3138 3137 3137 3136 3135 3134 3133 3134 3134 3134 3135 3135 3134 3134 3136 3138 3139 3141 3142 3143 3144 3144 3146 3146 3147 3149 3151 3153 3155 3157 3158 3160
3108 3108 3108 3107 3107 3106 3106 3106 3107 3108 3108 3109 3109 3109 3111 3112 3113 3113 3114 3115 3116 3116 3117 3118 3119 3121 3122 3124 3126 3127 3128 3129 3130 3131 3132 3134 3135 3137 3138 3139 3139 3139 3140 3140 3141 3140 3140 3140 3140 3140 3140 3139 3139 3139 3139 3139 3138 3138 3137 3137 3137 3135 3134 3135 3135 3135 3136 3137 3137 3137 3138 3139 3141 3142 3142 3143 3144 3145 3146 3147 3148 3149 3151 3153 3155 3157 3158 3160
3105 3105 3105 3105 3105 3104 3104 3104 3105 3105 3106 3106 3107 3107 3108 3110 3111 3112 3112 3113 3114 3115 3116 3117 3118 3119 3121 3123 3125 3126 3127 3128 3129 3131 3132 3133 3134 3135 3137 3138 3139 3139 3139 3140 3140 3140 3140 3140 3140 3140 3139 3139 3139 3139 3139 3138 3138 3138 3137 3137 3137 3137 3136 3136 3136 3136 3137 3138 3138 3139 3140 3141 3141 3142 3142 3143 3144 3145 3146 3147 3148 3149 3151 3153 3155 3156 3158 3159
3103 3102 3102 3102 3102 3102 3102 3102 3103 3103 3104 3104 3104 3104 3106 3108 3109 3110 3111 3112 3113 3113 3114 3115 3117 3118 3120 3122 3123 3125 3126 3128 3129 3130 3131 3132 3133 3135 3136 3137 3138 3138 3139 3139 3139 3140 3140 3139 3139 3139 3139 3139 3139 3139 3139 3138 3138 3138 3137 3138 3138 3138 3138 3138 3137 3137 3137 3138 3139 3139 3140 3142 3142 3142 3142 3143 3144 3145 3146 3147 3148 3149 3151 3153 3155 3156 3157 3159
3100 3100 3100 3100 3100 3100 3100 3100 3101 3101 3102 3101 3101 3102 3105 3106 3107 3108 3109 3110 3111 3112 3113 3114 3115 3116 3118 3120 3121 3123 3125 3127 3129 3130 3131 3133 3134 3135 3136 3137 3138 3138 3139 3139 3139 3139 3139 3139 3139 3139 3139 3139 3139 3139 3139 3139 3138 3138 3137 3138 3138 3138 3138 3138 3138 3138 3138 3139 3139 3140 3140 3141 3142 3142 3143 3144 3145 3146 3147 3148 3148 3149 3151 3152 3154 3155 3157 3159
3097 3097 3097 3097 3097 3098 3098 3098 3099 3099 3100 3099 3099 3100 3102 3103 3105 3106 3107 3108 3109 3110 3111 3112 3114 3115 3117 3118 3120 3122 3124 3126 3128 3129 3131 3132 3134 3135 3136 3137 3137 3138 3139 3139 3139 3139 3139 3139 3138 3138 3138 3139 3139 3139 3139 3139 3138 3138 3137 3138 3138 3138 3138 3138 3138 3138 3139 3139 3139 3140 3140 3141 3142 3143 3143 3144 3145 3146 3147 3148 3148 3149 3150 3152 3153 3155 3156 3158
3094 3094 3094 3094 3095 3095 3095 3096 3097 3097 3097 3097 3097 3098 3100 3101 3103 3104 3105 3106 3108 3109 3110 3111 3112 3114 3115 3116 3118 3121 3123 3125 3127 3128 3130 3131 3132 3133 3134 3136 3137 3138 3138 3138 3138 3138 3138 3138 3138 3138 3138 3138 3139 3139 3139 3138 3138 3138 3138 3138 3138 3138 3138 3138 3138 3138 3139 3139 3139 3140 3140 3141 3142 3143 3143 3144 3145 3145 3146 3147 3149 3150 3150 3151 3153 3154 3156 3158
3091 3091 3091 3091 3092 3092 3093 3093 3095 3096 3095 3094 3095 3096 3098 3099 3101 3102 3103 3104 3106 3107 3108 3109 3110 3112 3113 3114 3117 3120 3122 3124 3125 3127 3129 3130 3131 3132 3133 3134 3136 3137 3138 3138 3138 3138 3138 3138 3138 3137 3137 3137 3138 3139 3139 3139 3138 3138 3138 3138 3138 3137 3137 3137 3138 3138 3138 3138 3139 3139 3139 3140 3141 3142 3143 3143 3144 3145 3146 3147 3148 3150 3150 3151 3152 3153 3155 3157
3088 3088 3088 3088 3089 3089 3090 3091 3092 3093 3093 3093 3093 3094 3096 3098 3099 3100 3101 3102 3104 3105 3106 3107 3108 3110 3111 3113 3115 3117 3119 3121 3123 3125 3127 3129 3130 3130 3131 3133 3134 3136 3136 3136 3137 3138 3138 3138 3137 3137 3136 3137 3138 3139 3139 3139 3139 3139 3139 3138 3138 3137 3136 3136 3136 3137 3137 3138 3138 3138 3139 3139 3140 3141 3142 3143 3144 3145 3146 3147 3148 3149 3150 3151 3152 3153 3155 3156
3086 3085 3085 3085 3086 3086 3087 3088 3090 3091 3091 3091 3091 3093 3094 3096 3097 3098 3099 3101 3103 3104 3105 3106 3107 3108 3110 3111 3112 3114 3117 3120 3121 3124 3126 3127 3128 3129 3131 3131 3132 3134 3135 3136 3137 3138 3138 3137 3136 3136 3136 3137 3138 3139 3139 3139 3139 3139 3138 3138 3138 3137 3135 3135 3135 3136 3136 3137 3137 3138 3139 3139 3139 3140 3141 3142 3143 3144 3145 3145 3146 3148 3149 3150 3151 3153 3154 3156
3084 3083 3083 3083 3083 3084 3084 3086 3088 3089 3089 3089 3089 3091 3092 3094 3095 3096 3098 3099 3101 3102 3103 3104 3105 3106 3108 3109 3110 3112 3115 3117 3119 3122 3123 3125 3127 3128 3128 3129 3131 3132 3134 3135 3136 3136 3137 3135 3134 3135 3137 3138 3138 3138 3138 3138 3139 3139 3138 3138 3137 3137 3136 3135 3135 3135 3136 3136 3137 3138 3138 3138 3139 3139 3140 3141 3141 3142 3143 3144 3145 3146 3148 3149 3151 3152 3154 3156
3081 3080 3080 3080 3081 3081 3082 3083 3085 3087 3087 3087 3087 3089 3091 3092 3094 3095 3096 3098 3099 3100 3101 3102 3103 3104 3106 3107 3108 3110 3112 3114 3116 3119 3121 3123 3124 3126 3127 3128 3129 3131 3133 3134 3134 3135 3135 3133 3133 3136 3137 3137 3137 3138 3138 3138 3138 3137 3138 3138 3136 3136 3136 3136 3136 3135 3136 3136 3137 3137 3137 3138 3138 3138 3138 3139 3140 3141 3143 3144 3145 3146 3147 3148 3149 3151 3153 3155
3080 3078 3078 3078 3078 3079 3080 3082 3084 3085 3086 3085 3086 3088 3090 3091 3093 3094 3095 3096 3097 3097 3098 3099 3100 3102 3105 3106 3107 3108 3110 3112 3114 3116 3119 3121 3122 3124 3126 3127 3129 3131 3132 3133 3133 3134 3133 3131 3133 3136 3137 3137 3137 3137 3137 3137 3137 3136 3137 3137 3136 3135 3136 3136 3136 3136 3136 3137 3137 3137 3137 3137 3137 3137 3137 3137 3138 3140 3142 3143 3144 3145 3145 3147 3148 3150 3152 3154
3078 3077 3076 3076 3076 3077 3078 3080 3082 3083 3084 3084 3085 3088 3089 3091 3092 3093 3094 3094 3094 3095 3095 3096 3097 3100 3103 3105 3106 3107 3109 3111 3113 3115 3118 3119 3121 3123 3124 3127 3129 3130 3131 3132 3133 3133 3131 3131 3134 3136 3136 3137 3137 3137 3137 3137 3135 3135 3136 3136 3135 3135 3136 3136 3136 3136 3135 3136 3137 3138 3137 3136 3135 3135 3135 3136 3137 3138 3140 3141 3142 3143 3144 3146 3147 3149 3150 3152
3076 3075 3075 3075 3075 3076 3077 3079 3081 3082 3083 3083 3085 3087 3088 3090 3092 3092 3093 3092 3091 3092 3092 3093 3094 3097 3100 3102 3103 3106 3109 3110 3112 3114 3116 3118 3120 3121 3123 3126 3127 3128 3130 3131 3132 3132 3130 3131 3134 3135 3136 3137 3137 3137 3138 3137 3136 3134 3135 3135 3134 3135 3135 3135 3135 3135 3135 3136 3136 3138 3138 3135 3134 3134 3134 3135 3135 3136 3137 3138 3139 3140 3142 3143 3145 3146 3148 3151
3075 3074 3074 3074 3074 3075 3076 3078 3080 3081 3081 3083 3085 3086 3088 3090 3091 3091 3092 3091 3089 3089 3090 3091 3093 3095 3097 3099 3101 3105 3107 3108 3111 3114 3116 3118 3120 3121 3123 3124 3125 3127 3129 3131 3132 3130 3127 3130 3133 3134 3135 3137 3137 3137 3138 3138 3137 3135 3134 3134 3134 3135 3135 3134 3134 3135 3135 3135 3136 3137 3138 3136 3133 3133 3133 3133 3134 3134 3136 3136 3136 3138 3139 3141 3142 3144 3147 3149
3073 3073 3073 3073 3073 3074 3075 3077 3078 3079 3081 3083 3084 3086 3088 3089 3090 3091 3091 3091 3088 3088 3088 3089 3091 3093 3095 3097 3100 3103 3104 3105 3109 3112 3114 3116 3119 3121 3122 3123 3124 3126 3128 3130 3129 3125 3125 3129 3132 3133 3134 3136 3136 3136 3137 3138 3137 3135 3134 3135 3135 3134 3134 3133 3133 3134 3134 3135 3135 3136 3137 3137 3133 3132 3132 3132 3132 3133 3133 3133 3134 3136 3137 3139 3141 3143 3145 3147
3072 3072 3072 3072 3072 3073 3074 3076 3078 3079 3081 3082 3084 3086 3087 3088 3089 3090 3091 3090 3088 3087 3087 3088 3090 3092 3093 3096 3098 3101 3102 3104 3107 3109 3112 3116 3118 3119 3121 3121 3123 3125 3127 3128 3124 3122 3125 3128 3130 3132 3133 3134 3135 3135 3137 3138 3137 3134 3135 3136 3135 3135 3134 3133 3133 3134 3134 3134 3135 3134 3136 3137 3133 3130 3131 3132 3131 3131 3130 3131 3132 3133 3135 3137 3139 3142 3144 3146
3071 3071 3070 3071 3071 3072 3073 3075 3077 3078 3080 3082 3084 3086 3087 3088 3089 3089 3090 3090 3088 3087 3087 3088 3090 3091 3092 3094 3096 3100 3102 3104 3106 3108 3111 3114 3116 3118 3120 3121 3123 3125 3126 3125 3122 3123 3127 3128 3129 3131 3132 3132 3133 3135 3136 3138 3137 3135 3136 3136 3135 3135 3134 3134 3134 3134 3135 3134 3133 3133 3135 3136 3133 3129 3129 3130 3129 3128 3128 3129 3131 3132 3134 3136 3138 3140 3142 3145
3070 3069 3069 3070 3071 3072 3073 3075 3076 3078 3080 3082 3084 3085 3086 3088 3089 3090 3091 3089 3088 3087 3088 3088 3089 3090 3090 3092 3094 3098 3102 3104 3106 3108 3110 3113 3115 3118 3119 3121 3123 3124 3124 3124 3122 3123 3125 3127 3128 3129 3129 3130 3132 3134 3135 3136 3136 3136 3136 3136 3135 3135 3134 3134 3134 3134 3136 3134 3131 3132 3134 3135 3134 3128 3127 3128 3127 3126 3127 3128 3129 3131 3133 3135 3137 3139 3141 3143
3069 3068 3068 3069 3070 3071 3073 3075 3076 3078 3080 3081 3083 3085 3086 3088 3089 3090 3090 3088 3088 3088 3088 3089 3090 3090 3090 3091 3093 3097 3101 3103 3105 3106 3108 3111 3113 3116 3117 3119 3121 3122 3123 3122 3121 3121 3123 3124 3125 3126 3128 3130 3130 3132 3133 3133 3135 3135 3135 3136 3136 3135 3134 3135 3135 3136 3137 3134 3131 3132 3132 3135 3134 3127 3125 3127 3126 3127 3127 3128 3129 3131 3132 3134 3136 3138 3140 3142
3069 3068 3068 3069 3070 3071 3073 3074 3076 3078 3079 3081 3083 3084 3086 3088 3089 3088 3088 3087 3088 3089 3089 3090 3090 3090 3091 3092 3094 3096 3099 3102 3103 3105 3106 3108 3111 3112 3114 3116 3117 3119 3120 3120 3119 3120 3120 3121 3123 3124 3126 3128 3129 3130 3131 3132 3133 3133 3134 3135 3136 3136 3136 3136 3136 3136 3136 3133 3131 3132 3133 3134 3131 3125 3125 3127 3127 3127 3128 3129 3130 3132 3133 3134 3136 3138 3140 3142
3070 3069 3068 3069 3070 3072 3073 3075 3076 3078 3079 3081 3083 3084 3086 3088 3088 3087 3087 3088 3088 3089 3089 3090 3090 3090 3091 3092 3094 3097 3099 3102 3103 3104 3106 3108 3109 3111 3113 3114 3116 3117 3118 3119 3120 3120 3119 3118 3120 3122 3123 3125 3127 3127 3129 3130 3131 3131 3132 3134 3135 3137 3138 3138 3137 3136 3134 3132 3131 3132 3134 3133 3128 3124 3124 3125 3126 3128 3129 3130 3131 3132 3134 3136 3137 3138 3140 3141
3071 3070 3070 3070 3071 3072 3074 3075 3076 3078 3079 3081 3082 3084 3086 3087 3087 3087 3087 3088 3088 3089 3089 3088 3088 3089 3090 3091 3094 3096 3099 3101 3103 3104 3105 3107 3108 3109 3110 3112 3114 3116 3118 3119 3120 3120 3119 3118 3118 3120 3122 3123 3125 3126 3128 3129 3130 3131 3131 3133 3133 3134 3135 3135 3135 3134 3134 3133 3132 3133 3133 3129 3125 3124 3124 3125 3127 3128 3129 3130 3131 3133 3135 3136 3137 3139 3140 3141
3072 3071 3071 3071 3072 3073 3074 3075 3077 3078 3079 3081 3082 3084 3085 3085 3086 3087 3087 3087 3088 3088 3087 3087 3087 3088 3089 3091 3093 3095 3098 3100 3102 3103 3104 3105 3105 3106 3108 3110 3112 3114 3116 3118 3118 3119 3119 3117 3117 3120 3121 3122 3124 3126 3127 3129 3129 3130 3131 3132 3132 3131 3131 3131 3131 3132 3132 3132 3132 3132 3129 3125 3124 3124 3123 3125 3126 3127 3128 3130 3131 3132 3134 3136 3137 3138 3139 3140
3072 3072 3072 3072 3072 3073 3074 3075 3077 3078 3080 3081 3082 3083 3084 3085 3086 3087 3087 3087 3087 3087 3086 3086 3087 3088 3089 3090 3092 3094 3097 3099 3101 3102 3103 3103 3104 3105 3107 3108 3110 3112 3114 3115 3117 3118 3118 3115 3116 3119 3120 3121 3123 3125 3126 3128 3128 3129 3129 3129 3129 3130 3131 3131 3131 3131 3132 3132 3131 3129 3126 3123 3124 3123 3122 3124 3125 3126 3128 3128 3130 3132 3133 3135 3136 3137 3139 3140
3073 3072 3072 3072 3072 3073 3074 3076 3077 3079 3080 3082 3082 3083 3084 3085 3086 3086 3087 3087 3087 3087 3086 3087 3087 3087 3088 3090 3091 3093 3095 3098 3100 3101 3101 3102 3103 3103 3105 3107 3109 3110 3112 3114 3116 3117 3116 3114 3114 3118 3119 3120 3122 3123 3124 3126 3127 3128 3128 3128 3129 3130 3130 3131 3131 3132 3133 3133 3130 3126 3124 3123 3123 3122 3121 3122 3124 3125 3126 3127 3129 3131 3132 3134 3135 3137 3138 3140
3074 3073 3073 3073 3074 3074 3076 3077 3078 3079 3081 3082 3083 3083 3084 3085 3085 3087 3087 3087 3087 3087 3087 3087 3087 3088 3088 3089 3090 3092 3094 3096 3098 3099 3100 3101 3101 3101 3103 3105 3106 3108 3111 3114 3115 3116 3117 3114 3113 3115 3117 3118 3120 3121 3122 3123 3125 3126 3127 3128 3129 3129 3129 3130 3131 3131 3133 3134 3130 3125 3123 3123 3122 3121 3120 3121 3123 3124 3125 3127 3128 3130 3131 3133 3135 3136 3138 3139
3075 3075 3075 3075 3075 3076 3077 3078 3079 3080 3081 3082 3083 3084 3084 3085 3086 3087 3087 3086 3087 3087 3087 3087 3087 3087 3088 3088 3090 3091 3093 3094 3095 3097 3098 3099 3099 3099 3101 3103 3104 3106 3109 3112 3113 3114 3116 3116 3112 3113 3115 3116 3117 3118 3119 3122 3124 3124 3125 3127 3127 3127 3127 3127 3128 3128 3129 3131 3130 3126 3123 3121 3120 3119 3119 3121 3122 3123 3125 3126 3127 3129 3131 3132 3134 3136 3137 3138
3077 3076 3076 3076 3076 3077 3078 3079 3080 3081 3082 3082 3083 3084 3084 3084 3085 3087 3086 3086 3086 3086 3087 3087 3087 3087 3087 3088 3089 3090 3092 3093 3094 3095 3095 3096 3097 3097 3099 3101 3102 3104 3107 3110 3111 3112 3115 3115 3112 3111 3113 3114 3115 3116 3119 3121 3122 3122 3122 3124 3125 3126 3126 3126 3126 3126 3126 3128 3129 3128 3124 3120 3119 3119 3119 3120 3121 3123 3124 3125 3127 3129 3131 3132 3134 3135 3137 3138
3078 3078 3077 3077 3077 3077 3078 3079 3080 3081 3082 3082 3083 3083 3084 3084 3084 3086 3086 3085 3086 3086 3086 3086 3087 3087 3087 3088 3089 3090 3091 3091 3092 3093 3093 3094 3095 3095 3096 3098 3099 3102 3104 3106 3108 3109 3111 3113 3112 3110 3111 3112 3112 3115 3118 3119 3119 3120 3119 3119 3121 3124 3125 3125 3125 3125 3126 3126 3126 3127 3124 3119 3118 3119 3118 3119 3121 3122 3123 3125 3127 3130 3131 3132 3134 3135 3137 3138
3079 3079 3079 3078 3078 3078 3079 3079 3080 3080 3081 3081 3082 3083 3083 3084 3084 3085 3085 3085 3085 3085 3085 3086 3086 3087 3087 3088 3089 3089 3090 3090 3090 3091 3092 3092 3093 3093 3094 3096 3098 3099 3101 3103 3104 3106 3109 3111 3111 3109 3108 3109 3110 3112 3115 3115 3116 3116 3116 3117 3119 3121 3122 3123 3124 3124 3125 3124 3124 3124 3122 3118 3117 3118 3118 3119 3120 3122 3123 3125 3127 3129 3131 3132 3134 3135 3137 3138
3080 3080 3080 3080 3079 3079 3079 3080 3080 3080 3081 3081 3082 3083 3083 3083 3083 3084 3083 3083 3084 3084 3085 3085 3086 3086 3087 3088 3088 3089 3089 3090 3089 3090 3091 3091 3092 3092 3092 3094 3096 3098 3099 3100 3102 3104 3107 3108 3108 3108 3107 3107 3107 3109 3111 3111 3112 3113 3113 3115 3117 3118 3120 3121 3123 3123 3123 3123 3123 3123 3122 3118 3117 3118 3118 3119 3120 3121 3123 3125 3127 3129 3131 3132 3134 3135 3136 3138
3080 3080 3080 3080 3080 3080 3080 3080 3080 3080 3081 3081 3082 3082 3082 3082 3082 3082 3082 3083 3083 3084 3084 3085 3085 3086 3086 3087 3088 3088 3089 3089 3089 3089 3090 3091 3091 3091 3091 3092 3094 3096 3098 3098 3100 3102 3104 3104 3106 3108 3108 3107 3106 3107 3108 3109 3109 3110 3111 3113 3114 3116 3118 3120 3121 3122 3122 3122 3122 3122 3121 3118 3117 3118 3118 3119 3120 3121 3122 3125 3127 3129 3131 3132 3133 3135 3136 3137
3080 3080 3080 3080 3080 3080 3079 3079 3080 3080 3080 3081 3082 3082 3082 3082 3082 3082 3083 3083 3083 3083 3083 3084 3085 3085 3085 3086 3087 3088 3088 3089 3089 3089 3089 3090 3090 3090 3090 3090 3092 3094 3096 3097 3099 3100 3101 3102 3103 3105 3106 3107 3106 3106 3106 3106 3107 3109 3110 3111 3113 3115 3116 3118 3119 3120 3120 3120 3121 3121 3119 3117 3117 3118 3118 3118 3120 3121 3123 3125 3127 3128 3130 3132 3133 3134 3136 3137
3079 3079 3079 3080 3080 3080 3079 3079 3079 3079 3080 3080 3081 3081 3082 3082 3082 3083 3083 3083 3083 3083 3083 3083 3083 3084 3084 3085 3086 3087 3087 3088 3088 3088 3089 3089 3089 3089 3089 3090 3091 3092 3093 3095 3096 3098 3100 3099 3100 3101 3101 3102 3103 3104 3105 3105 3106 3107 3108 3109 3110 3113 3114 3115 3116 3117 3118 3119 3119 3119 3118 3117 3116 3117 3118 3119 3120 3121 3123 3124 3126 3127 3129 3131 3132 3134 3135 3137
3078 3078 3078 3079 3079 3079 3078 3078 3079 3079 3079 3079 3080 3081 3082 3082 3082 3082 3083 3083 3082 3082 3081 3082 3083 3083 3084 3085 3085 3086 3087 3087 3088 3088 3088 3089 3089 3089 3089 3090 3090 3091 3091 3092 3093 3096 3097 3097 3098 3099 3100 3100 3101 3103 3105 3105 3105 3106 3107 3107 3107 3109 3111 3112 3113 3115 3117 3117 3117 3117 3118 3117 3115 3116 3118 3119 3120 3121 3123 3124 3125 3126 3128 3130 3132 3133 3134 3136
3077 3077 3077 3077 3078 3078 3078 3078 3078 3078 3078 3079 3079 3080 3081 3081 3082 3082 3082 3082 3082 3081 3081 3081 3082 3082 3083 3084 3084 3085 3086 3086 3087 3087 3088 3088 3088 3089 3089 3090 3090 3090 3090 3090 3091 3092 3094 3095 3096 3098 3098 3099 3100 3102 3103 3104 3104 3105 3106 3105 3105 3106 3108 3109 3111 3113 3114 3114 3114 3115 3116 3115 3115 3115 3116 3118 3120 3121 3122 3123 3125 3126 3127 3129 3131 3132 3134 3135
3076 3076 3076 3076 3076 3077 3077 3077 3078 3078 3078 3078 3078 3079 3080 3081 3081 3081 3082 3082 3082 3081 3081 3081 3081 3081 3082 3083 3084 3085 3085 3085 3086 3087 3087 3087 3088 3088 3089 3090 3090 3089 3089 3089 3089 3090 3092 3094 3095 3097 3097 3097 3099 3100 3102 3103 3103 3104 3104 3103 3103 3105 3106 3107 3109 3109 3110 3112 3113 3114 3114 3113 3113 3114 3114 3116 3118 3119 3120 3122 3124 3125 3127 3128 3130 3131 3133 3134
3075 3075 3074 3075 3074 3075 3075 3076 3076 3077 3077 3077 3077 3078 3079 3080 3080 3081 3081 3081 3081 3081 3081 3081 3081 3081 3082 3083 3083 3084 3085 3085 3086 3086 3087 3087 3087 3087 3088 3089 3089 3089 3088 3087 3087 3089 3091 3092 3094 3095 3096 3096 3097 3098 3100 3101 3102 3102 3102 3102 3102 3103 3104 3105 3106 3107 3109 3111 3112 3113 3113 3112 3112 3113 3113 3114 3116 3117 3119 3120 3122 3124 3125 3127 3129 3130 3132 3133
3074 3073 3073 3073 3073 3073 3073 3074 3074 3075 3076 3076 3077 3077 3078 3079 3079 3080 3081 3080 3081 3081 3081 3081 3081 3082 3083 3083 3083 3083 3084 3084 3085 3086 3086 3087 3087 3087 3088 3088 3089 3089 3089 3088 3088 3089 3090 3092 3093 3094 3094 3094 3095 3096 3098 3100 3101 3101 3100 3100 3101 3102 3102 3103 3105 3106 3108 3110 3111 3111 3111 3111 3111 3112 3112 3113 3114 3116 3117 3119 3120 3122 3124 3126 3128 3129 3131 3132
3073 3072 3072 3071 3071 3071 3071 3071 3072 3073 3074 3074 3075 3076 3077 3077 3078 3079 3080 3080 3080 3080 3080 3081 3081 3082 3083 3083 3083 3083 3083 3084 3085 3086 3086 3086 3087 3087 3088 3088 3089 3089 3089 3090 3089 3089 3090 3091 3091 3092 3093 3093 3094 3095 3097 3099 3100 3099 3099 3099 3099 3100 3100 3102 3103 3105 3107 3109 3109 3109 3110 3110 3110 3110 3111 3112 3113 3114 3115 3117 3119 3121 3123 3125 3127 3129 3131 3132